x

Pensacola - 115nm Ese Of Pensacola, Fl (42039) Wave Buoy

6:50am - Fri 22nd Aug 2014 All times are CDT. -5 hours from GMT.

  • Sig Wave height 1.0ft
  • Peak Period 9s
  • Average Period 5s
  • Wind
    4mph, 7mph gusts
  • Sea Temp 87°f
  • Air Temp 85°f
  • Sea Pressure 1018.9mb
  • Pensacola - 115nm Ese Of Pensacola, Fl
  • Pensacola - 115nm Ese Of Pensacola, Fl

More Historic Weather Station data

Upgrade to MSW Pro to gain access to the past 30 days of data for over 8000 Wavebouys and Weather Stations around the globe.

Join Pro

Comparision Forecast

View Surf forecast
   
Fri 08/22 6:50am 1ft 9s 5s 4 7 mph 1018.9mb 87f 85f
5:50am 1ft 9s 5s 2 4 mph 1018.4mb 88f 85f
4:50am 1ft 8s 5s 4 7 mph 1017.8mb 88f 85f
3:50am 1ft 8s 5s 4 7 mph 1017.7mb 88f 85f
2:50am 1ft 8s 5s 7 9 mph 1017.7mb 88f 85f
1:50am 0.7ft  -  5s 7 9 mph 1018.1mb 88f 85f
12:50am 1ft 6s 5s 7
mph
1018.8mb 89f 85f
Thu 08/21 11:50pm 1ft 8s 5s 4 7 mph 1019.5mb 89f 85f
10:50pm 1ft 8s 5s 4 7 mph 1019.9mb 89f 86f
9:50pm 1ft 9s 5s 4 7 mph 1020.3mb 88f 86f
8:50pm 1ft 8s 4s 4 7 mph 1020mb 88f 86f
7:50pm 1ft 9s 4s 2 4 mph 1019.4mb 89f 85f
6:50pm 1ft 7s 4s 4
mph
1019mb 89f 86f
5:50pm 1ft 8s 4s 2 4 mph 1018.6mb 90f 86f
4:50pm 1ft 9s 4s 2 4 mph 1018.5mb 91f 86f
3:50pm 1ft 9s 4s 4 7 mph 1018.9mb 90f 86f
2:50pm 1ft 8s 4s 4 7 mph 1019.6mb 90f 86f
1:50pm 1ft 8s 4s 4 7 mph 1020.2mb 89f 86f
12:50pm 1ft 9s 5s 7 9 mph 1020.7mb 89f 85f
11:50am 1ft 9s 4s 7 9 mph 1021mb 88f 85f
10:50am 1ft 6s 5s 7 9 mph 1021.1mb 88f 86f
9:50am 1ft 6s 4s 7 9 mph 1020.9mb 88f 85f
8:50am 1ft 6s 4s 7 9 mph 1020.8mb 87f 86f
7:50am 1ft 9s 5s 4 7 mph 1020.4mb 87f 85f
6:50am 1ft 6s 4s 7 9 mph 1019.7mb 87f 85f
5:50am 1ft 6s 4s 4 7 mph 1019mb 87f 85f
4:50am 1ft 5s 4s 4 7 mph 1018.6mb 86f 85f
3:50am 1ft 6s 4s 4 7 mph 1018.5mb 87f 85f
2:50am 1.3ft 5s 4s 2 4 mph 1018.7mb 87f 85f
1:50am 1.3ft 4s 4s 4
mph
1019mb 87f 85f
12:50am 1.3ft 4s 4s 4
mph
1019.2mb 87f 86f
Wed 08/20 11:50pm 1.3ft 7s 4s 4 7 mph 1019.6mb 87f 86f
10:50pm 1.3ft 5s 4s 2
mph
1019.9mb 87f 86f
9:50pm 1ft 5s 4s 2 4 mph 1019.7mb 87f 86f
8:50pm 1ft 5s 4s 4
mph
1018.9mb 88f 86f
7:50pm 1ft 5s 4s 4 7 mph 1018.4mb 88f 86f
6:50pm 1ft 5s 4s 4
mph
1018mb 89f 87f
5:50pm 1ft 6s 4s 2
mph
1018.1mb 89f 89f
4:50pm 1.3ft 6s 4s 2 4 mph 1018.5mb 91f 88f
3:50pm 1.3ft 6s 4s 2 4 mph 1018.3mb 91f 87f
2:50pm 1.3ft 6s 4s 4
mph
1018.6mb 90f 87f
1:50pm 1.3ft 5s 4s 4 7 mph 1018.9mb 89f 86f
12:50pm 1.3ft 3s 4s 7
mph
1019.5mb 88f 86f
11:50am 1.3ft 3s 4s 4 7 mph 1019.8mb 87f 86f
10:50am 1.3ft 7s 4s 4 7 mph 1019.6mb 87f 86f
9:50am 1.6ft 6s 4s 7 9 mph 1019.2mb 87f 86f
8:50am 1.3ft 3s 4s 7
mph
1018.8mb 87f 86f
7:50am 1.3ft 3s 3s 9 11 mph 1018.1mb 87f 85f
6:50am 1.3ft 3s 3s 11 13 mph 1017.3mb 87f 85f
5:50am 1.3ft 4s 3s 9 11 mph 1016.7mb 87f 85f
4:50am 1.3ft 6s 3s 11 13 mph 1015.6mb 87f 85f
3:50am 1.3ft 6s 4s 13 16 mph 1014.9mb 87f 85f
2:50am 1.3ft 4s 4s 11 13 mph 1015mb 87f 85f
1:50am 1.3ft 5s 4s 9 11 mph 1015.7mb 87f 85f
12:50am 1.3ft 4s 4s 9 11 mph 1016mb 87f 85f
Tue 08/19 11:50pm 1.3ft 4s 4s 9 11 mph 1016.4mb 87f 85f
10:50pm 1.6ft 4s 4s 9 11 mph 1016.9mb 88f 86f
9:50pm 1.6ft 5s 4s 7 9 mph 1016.6mb 88f 86f
8:50pm 1.6ft 6s 4s 9
mph
1015.4mb 88f 86f
7:50pm 1.6ft 6s 4s 7 9 mph 1015.4mb 88f 86f
6:50pm 1.6ft 6s 4s 7 9 mph 1015.1mb 88f 86f
5:50pm 1.6ft 5s 4s 7 9 mph 1015.3mb 88f 87f
4:50pm 1.6ft 6s 4s 7 9 mph 1015.3mb 89f 86f
3:50pm 1.6ft 4s 4s 9 11 mph 1015.2mb 89f 85f
2:50pm 1.6ft 3s 4s 9 11 mph 1015.7mb 89f 86f
1:50pm 1.6ft 4s 4s 9 11 mph 1016.1mb 89f 86f
12:50pm 2ft 8s 4s 9 11 mph 1016.7mb 88f 86f
11:50am 1.6ft 3s 4s 9 11 mph 1017.3mb 88f 86f
10:50am 1.6ft 8s 4s 9 11 mph 1017.7mb 88f 86f
9:50am 1.6ft 8s 4s 9 11 mph 1017.3mb 87f 85f
8:50am 1.6ft 8s 4s 9 13 mph 1016.8mb 87f 85f
7:50am 1.6ft 8s 4s 11 13 mph 1016.3mb 87f 85f
6:50am 1.6ft 3s 3s 11
mph
1015.8mb 87f 85f
5:50am 1.6ft 8s 3s 11 13 mph 1015.3mb 87f 85f
4:50am 1.6ft 3s 3s 11 13 mph 1014.9mb 87f 85f
3:50am 1.6ft 3s 3s 13 16 mph 1014.5mb 87f 85f
2:50am 1.6ft 5s 3s 11 13 mph 1014.8mb 87f 85f
1:50am 1.3ft 6s 3s 11 13 mph 1015.1mb 87f 85f
12:50am 1.3ft 6s 4s 11
mph
1015.5mb 87f 85f
Mon 08/18 11:50pm 1.3ft 6s 4s 9 11 mph 1015.4mb 87f 85f
10:50pm 1.3ft 4s 4s 7 9 mph 1015.7mb 87f 85f
9:50pm 1.3ft 8s 4s 7 9 mph 1016mb 87f 85f
8:50pm 1.3ft 8s 4s 9
mph
1016mb 87f 85f
7:50pm 1.3ft 8s 4s 7 9 mph 1015.8mb 88f 85f
6:50pm 1.3ft 8s 4s 7 9 mph 1015.9mb 88f 85f
5:50pm 1.3ft 8s 4s 7 9 mph 1015.6mb 88f 85f
4:50pm 1.6ft 8s 4s 2 4 mph 1015.5mb 88f 85f
3:50pm 1.6ft 9s 4s 2 4 mph 1016mb 88f 82f
2:50pm 1.6ft 9s 4s 9 11 mph 1016.2mb 88f 86f
1:50pm 1.6ft 8s 4s 9 11 mph 1016.7mb 88f 86f
12:50pm 1.6ft 4s 4s 7 9 mph 1017.5mb 88f 86f